Showing default

ARCTICSAT-1, 61762

Orbit data source: Space-Track

ARCTICSAT-1, 61762 is a Commonwealth of Independent States-origin payload satellite in SSO that was launched on Mon, 04 Nov 2024 UTC via a SOYUZ-2-1B launch vehicle from the Vostochny Cosmodrome (VOSTO). Payload-class satellites include a variety of spacecraft equipped with specific instruments for various scientific and technological missions. These include communications satellites like Starlink; space stations such as the ISS; scientific satellites like the Hubble; Earth observation satellites from companies like Planet Labs, Umbra, and HawkEye 360; GPS; miniature CubeSats for education and research; and military/defense satellites.

Loading next visibility...
Identifier
61762, 2024-199AD
Orbit
SSO
Country
Flag of CISCIS
Related business
Manufacturer
Sputniks
Mission
Operational Amateur Sci/Com
Bus & Motor
CUBESAT 3U, Unknown motor
Mass
3 kg wet, 3 kg dry
Launch date (UTC)
2024-11-04 (1 year ago)
Launch vehicle
SOYUZ-2-1B
Launch site
Vostochny Cosmodrome (VOSTO)
Object type
Payload
Rocket body
Debris
Shape & HBR
Box, 0.1 m
Radar Cross Section
0.035 m², Small (<0.1 m²)

Expand to show TLE details & history
Last TLE update: 9 hours ago

TLE from 9 hours ago
0 ARCTICSAT-1
1 61762U 24199AD  25312.84831647  .00064729  00000-0  12363-2 0  9996
2 61762  97.3259 183.2125 0008948   3.9569 356.1750 15.47856979103600
Epoch: 2025-11-08T20:21Z
TLE epoch observation values (Epoch: 2025-11-08T20:21:34.543Z)
Latitude
-0.00005°
Longitude
-170.45346°
Altitude
420.053 km
Speed
7.663 km/s
True Right ascension
12h 12m 51s
True Declination
0° 00' 00"
Sunlit
Object was in daylight at epoch
Visualization orbit readout
Latitude
Unknown
Longitude
Unknown
Altitude
Unknown
Speed
Unknown
Apparent Right ascension
Unknown
Apparent Declination
Unknown
Sunlit
N/A
Visualization observer readout
Local Sidereal Time
02:05:16
Azimuth
Unknown
Elevation
Unknown
Doppler factor
Unknown
Orbital elements
Apogee altitude
426.005 km
Perigee altitude
413.839 km
Semi-major axis
6,798.059 km
Eccentricity
0.00089
Inclination
97.3259°
RAAN
183.2125°
Arg. of periapsis
3.9569°
True anomaly
356.16815°
Mean anomaly
356.175°
Eccentric anomaly
356.17158°
Mean motion
3.87227 °/min
Orbital period
92.97 mins
BSTAR
0.0012363
Loading maneuver chart data...
Computing Atmospheric mass density...
Loading historical data...
Loading historical data...
Loading historical data...
Loading historical data...
Loading historical data...
Loading historical data...
Loading historical data...

Documentation

Showing up to 5 results
|